Overview Statistics Trail Chart Weather Telemetry Raw packets
 

This is the latest recevied weather packets stored in our database for station/object KG5VSR. If no packets are shown the sender has not sent any weather packets the latest 10 day(s).

<< 12 13 14 15 16 17 18 >>
Time Temp. Humidity Pressure Rain* Wind** Luminosity Snow
1788059133 32.78° C 46% 1015.1 hPa 0 mm - 0 W/m² -
1788057330 32.78° C 46% 1014.9 hPa 0 mm - 0 W/m² -
1788055527 33.89° C 44% 1014.5 hPa 0 mm - 0 W/m² -
1788053723 34.44° C 42% 1014.2 hPa 0 mm - 0 W/m² -
1788051922 35° C 41% 1013.8 hPa 0 mm - 0 W/m² -
1788050121 36.11° C 39% 1013.9 hPa 0 mm - 11 W/m² -
1788048321 37.22° C 38% 1013.8 hPa 0 mm - 34 W/m² -
1788046519 37.78° C 38% 1013.6 hPa 0 mm - 54 W/m² -
1788044714 38.33° C 36% 1013.8 hPa 0 mm - 198 W/m² -
1788042913 38.89° C 35% 1014 hPa 0 mm - 304 W/m² -
1788041110 38.89° C 34% 1014.2 hPa 0 mm - 382 W/m² -
1788039307 38.89° C 35% 1014.5 hPa 0 mm - 99 W/m² -
1788037503 38.89° C 36% 1014.9 hPa 0 mm - 565 W/m² -
1788035702 37.78° C 38% 1015.4 hPa 0 mm - 135 W/m² -
1788033898 38.89° C 36% 1015.8 hPa 0 mm - 692 W/m² -
1788032094 39.44° C 38% 1016.3 hPa 0 mm - 732 W/m² -
1788030291 38.33° C 41% 1016.8 hPa 0 mm - 299 W/m² -
1788028487 37.78° C 42% 1017.3 hPa 0 mm - 698 W/m² -
1788026696 37.78° C 43% 1017.6 hPa 0 mm - 734 W/m² -
1788024881 37.22° C 43% 1017.7 hPa 0 mm - 723 W/m² -
1788023080 36.11° C 46% 1018.2 hPa 0 mm - 777 W/m² -
1788021281 35° C 51% 1018.3 hPa 0 mm - 828 W/m² -
1788019480 33.89° C 54% 1018.4 hPa 0 mm - 714 W/m² -
1788017676 32.78° C 61% 1018.5 hPa 0 mm - 574 W/m² -
1788015872 31.67° C 63% 1018.4 hPa 0 mm - 475 W/m² -

* Rain latest hour (hover to see other rain measurements)
** Current wind speed in m/s (hover to see current wind gust speed)